Regional Weather Roundup
Issued by NWS

Home | Current Version | Previous Version | Graphics & Text | Print | Product List | Glossary On
Versions: 1 2 3 4 5 6 7 8 9 10 11 12 13 14 15 16 17 18 19 20 21 22 23 24 25 26 27 28 29 30 31 32 33 34 35 36 37 38 39 40 41 42 43 44 45 46 47 48 49 50
275
ASUS43 KOAX 202302
RWRNE

WEATHER ROUNDUP FOR NEBRASKA
NATIONAL WEATHER SERVICE OMAHA NE
600 PM CDT THU JUL 20 2017

NOTES: SATELLITE DATA IS BEING USED TO AUGMENT CLOUD COVER ABOVE
       12000 FEET.
       "FAIR" INDICATES FEW OR NO CLOUDS BELOW 12,000 FEET WITH NO
       SIGNIFICANT WEATHER AND/OR OBSTRUCTIONS TO VISIBILITY.


NEZ001>004-019>022-054>056-210000-
NEBRASKA PANHANDLE

CITY           SKY/WX    TMP DP  RH WIND       PRES   REMARKS
SCOTTSBLUFF    SUNNY     92  57  30 E14       30.01F HX  90
ALLIANCE       SUNNY     92  58  31 S13G18    30.01F HX  91
CHADRON        SUNNY     93  58  30 SE16      29.94F HX  92
GORDON         FAIR      89  60  36 SE8       29.99F
KIMBALL        MOSUNNY   91  56  30 E14       30.08F
SIDNEY         SUNNY     92  57  30 E15G24    30.05F HX  90
$$

NEZ057>060-069>072-079>082-210000-
SOUTHWEST NEBRASKA

CITY           SKY/WX    TMP DP  RH WIND       PRES   REMARKS
NORTH PLATTE   SUNNY     93  69  45 E12       29.94F HX  98
IMPERIAL       SUNNY     99  58  25 N9        29.92F HX  98
LEXINGTON      SUNNY     89  74  60 E10       29.93F HX  98
MCCOOK         SUNNY    103  55  20 S15       29.89F HX 101
OGALLALA       SUNNY     94  60  31 E9        29.97F HX  94
$$

NEZ005>010-023>029-035>040-094-210000-
NORTH CENTRAL NEBRASKA

CITY           SKY/WX    TMP DP  RH WIND       PRES   REMARKS
VALENTINE      SUNNY     97  56  25 S14G23    29.95F HX  95
AINSWORTH      SUNNY     91  61  37 SE13      29.98F HX  91
BROKEN BOW     SUNNY     91  70  49 SE12      29.96F HX  96
O`NEILL        SUNNY     87  74  64 SE8       29.97F HX  95
ORD            SUNNY     92  70  48 E12       29.93F HX  97
THEDFORD       SUNNY     91  63  38 SE12      29.99F HX  92
$$

NEZ041-046>049-061>064-073>077-083>087-210000-
SOUTH CENTRAL NEBRASKA

CITY           SKY/WX    TMP DP  RH WIND       PRES   REMARKS
GRAND ISLAND   MOSUNNY   90  77  65 SE8       29.94F HX 103
AURORA         CLOUDY    89  76  64 SE9       29.93F HX 100
HASTINGS       CLOUDY    90  74  59 SE9       29.94F HX  99
HEBRON         MOSUNNY   98  70  40 SE8G17    29.89F HX 104
HOLDREGE       MOSUNNY   89  75  63 E10       29.93F HX  98
KEARNEY        MOSUNNY   89  77  67 E12       29.93F HX 101
YORK           SUNNY     91  77  62 SE7       29.94F HX 105
$$

NEZ011>018-030>034-042>045-210000-
NORTHEAST NEBRASKA

CITY           SKY/WX    TMP DP  RH WIND       PRES   REMARKS
NORFOLK        CLOUDY    87  75  67 E10       29.95S HX  96
ALBION         SUNNY     92  75  57 E12G17    29.95F HX 102
BLAIR          MOSUNNY   92  75  57 CALM      29.94F HX 102
COLUMBUS       MOSUNNY   91  76  61 E10       29.93F HX 103
FREMONT        CLOUDY    91  73  55 SE5       29.93F HX  99
TEKAMAH        CLOUDY    83  70  64 NE13      29.94F
WAYNE          CLOUDY    85  81  87 E12       29.94F HX 102
$$

NEZ050>053-065>068-078-088>093-210000-
SOUTHEAST NEBRASKA

CITY           SKY/WX    TMP DP  RH WIND       PRES   REMARKS
LINCOLN        SUNNY     95  74  50 S6        29.92F HX 105
OMAHA EPPLEY   PTSUNNY   94  74  52 S9        29.92R HX 104
BEATRICE       SUNNY     96  77  53 E6        29.91F HX 110
FALLS CITY     SUNNY     95  78  58 SE10      29.91F HX 111
NEBRASKA CITY  SUNNY     94  81  65 S6        29.93S HX 115
PLATTSMOUTH    MOSUNNY   93  78  62 SE3       29.93F HX 108
$$

NEZ044-045-051>053-067-210000-
OMAHA AREA

CITY           SKY/WX    TMP DP  RH WIND       PRES   REMARKS
OMAHA EPPLEY   PTSUNNY   94  74  52 S9        29.92R HX 104
BLAIR          MOSUNNY   92  75  57 CALM      29.94F HX 102
FREMONT        CLOUDY    91  73  55 SE5       29.93F HX  99
MILLARD        MOSUNNY   95  79  59 SE3       29.92F HX 112
OFFUTT AFB     CLOUDY    92  76  60 SE5       29.92S HX 104
PLATTSMOUTH    MOSUNNY   93  78  62 SE3       29.93F HX 108
WAHOO          FAIR      91  76  60 E5        29.93F HX 103
$$




USA.gov is the U.S. government's official web portal to all federal, state and local government web resources and services.